User: anonymous   Login
Location: Unspecified
(0.0000°N, 0.0000°E)
Time: 01:57:41
(UTC+00:00)
Language:

PRSS 1 - Orbit

View from above orbital plane
View from above orbital plane
View from above satellite
View from above satellite

Ground track
Ground track

The orbit is defined by the following mean orbital elements,

1 43530U          26145.63849280 +.00000000 +00000-0 +13745-3 0 00009
2 43530  97.7824 214.1323 0001865  86.7977 273.3450 14.81948413    01
Epoch (UTC): 25 May 2026 15:19:25
Eccentricity: 0.0001865
inclination: 97.7824°
perigee height: 622 km
apogee height: 624 km
right ascension of ascending node: 214.1323°
argument of perigee: 86.7977°
revolutions per day: 14.81948413
mean anomaly at epoch: 273.3450°

The dashed part of the orbit path shows where the satellite is in the earth's shadow,  

DLR